Regional Weather Roundup
Issued by NWS Columbia, SC

Home | Current Version | Previous Version | Text Only | Print | Product List | Glossary On
Versions: 1 2 3 4 5 6 7 8 9 10 11 12 13 14 15 16 17 18 19 20 21 22 23 24 25 26 27 28 29 30 31 32 33 34 35 36 37 38 39 40 41 42 43 44 45 46 47 48 49
000
ASUS42 KCAE 150110
RWRCAE
REGIONAL WEATHER ROUNDUP
NATIONAL WEATHER SERVICE COLUMBIA SC
900 PM EDT SUN SEP 14 2014

NOTE: "FAIR" INDICATES FEW OR NO CLOUDS BELOW 12,000 FEET WITH NO
SIGNIFICANT WEATHER AND/OR OBSTRUCTIONS TO VISIBILITY.

NOT ALL STATIONS ARE QUALITY CONTROLLED BY THE NATIONAL
WEATHER SERVICE. USE DATA WITH CAUTION...ESPECIALLY
DEWPOINT OBSERVATIONS.

SCZ001>056-GAZ040-063>065-077-150200-
...UPSTATE SOUTH CAROLINA...

CITY           SKY/WX    TMP DP  RH WIND       PRES   REMARKS
ANDERSON       CLOUDY    66  61  84 E6        30.23R
LIBERTY        CLOUDY    64  62  92 MISG      30.24R
SPARTANBURG    CLOUDY    68  64  88 CALM      30.23R
CLEMSON        CLOUDY    67  61  81 CALM      30.25R
GREENVILLE     CLOUDY    66  59  78 E6        30.25R
GREENWOOD      CLOUDY    68  62  81 NE3       30.23R
GREER          CLOUDY    65  60  84 E6        30.23R
ROCK HILL      CLOUDY    67  62  84 SE3       30.24R
LAURENS        CLOUDY    64 N/A N/A N7        30.24R


...CENTRAL SOUTH CAROLINA...

CITY           SKY/WX    TMP DP  RH WIND       PRES   REMARKS
COLUMBIA APT   CLOUDY    73  64  73 E6        30.19S
COLUMBIA OWENS CLOUDY    72  64  76 E5        30.21R
DARLINGTON     CLOUDY    70  63  78 E3        30.23R
FLORENCE       CLOUDY    70  64  81 NE6       30.21R
ORANGEBURG     CLOUDY    72  67  84 E3        30.19S
NEWBERRY       CLOUDY    68  64  88 NE5       30.24S
AIKEN          CLOUDY    70  70 100 NE6       30.23S
BARNWELL       CLOUDY    73  70  88 NE6       30.19R
MANNING        CLOUDY    72 N/A N/A NE5       30.19S
LANCASTER      MOCLDY    66  66 100 NE5       30.23R
WINNSBORO      CLOUDY    68  64  88 E5        30.21S


...EASTERN AND COASTAL SOUTH CAROLINA...

CITY           SKY/WX    TMP DP  RH WIND       PRES   REMARKS
MYRTLE BEACH   CLOUDY    72  64  78 N8        30.19R
N MYRTLE BCH   CLOUDY    71  67  87 N6        30.19R
CONWAY         CLOUDY    68  68 100 N3        30.20S
HARTSVILLE     CLOUDY    70  52  52 E3        30.23R
FLORENCE       CLOUDY    70  64  81 NE6       30.21R
DARLINGTON     CLOUDY    70  63  78 E3        30.23R
CHARLESTON APT CLOUDY    75  72  90 NE7       30.17R
MOUNT PLEASANT CLOUDY    75  72  88 NE6       30.18R FOG
WALTERBORO     CLOUDY    73 N/A N/A CALM      30.18R HAZE
BEAUFORT       TSTM      75  72  90 NW10G21   30.16R FOG


...EASTERN GEORGIA...

CITY           SKY/WX    TMP DP  RH WIND       PRES   REMARKS
AUGUSTA BUSH F CLOUDY    73  68  84 N8        30.17S
AUGUSTA DANIEL CLOUDY    73  67  81 N6        30.19S
THOMSON        CLOUDY    73  71  95 NE5       30.23S
WASHINGTON     CLOUDY    70  70 100 CALM      30.20S
SYLVANIA       CLOUDY    78  77  95 NW6       30.17R THUNDER
SAVANNAH       CLOUDY    81  74  79 E5        30.15R


...SOUTHERN NORTH CAROLINA...

CITY           SKY/WX    TMP DP  RH WIND       PRES   REMARKS
CHARLOTTE      CLOUDY    68  59  73 E6        30.24R
MONROE         CLOUDY    67  60  78 E3        30.23R
WADESBORO      CLOUDY    68  64  85 CALM      30.22R FOG
ROCKINGHAM     CLOUDY    69  62  81 CALM      30.22S
RUTHERFORDTON  CLOUDY    65  60  84 CALM      30.26R
ASHEVILLE      CLOUDY    63  59  87 S8        30.27R

$$



USA.gov is the U.S. government's official web portal to all federal, state and local government web resources and services.